This demonstration page uses our WeatherBlox Daily Observations layout. Learn more.

40.92945, -100.16068

Hourly Observations for January 21, 2020

Temp ( °F °C ) Dew Point ( °F °C ) Humidity (%) Winds ( mph kmh ) Pressure ( in mb ) Visibility ( mi km ) Precip ( " mm )
12:15 am 00:15 Clear 12 -11.1 8 -13.1 85 85 S 7 11 30.66 1038 10 16.0934 0 0
12:35 am 00:35 Clear 12 -11.1 8 -13.2 85 85 SSE 6 9 30.65 1038 10 16.0934 0 0
12:55 am 00:55 Clear 12 -11.1 8 -13.2 85 85 SSE 9 15 30.63 1037 10 16.0934 0 0
1:15 am 01:15 Clear 12 -11 8 -13.2 84 84 S 8 13 30.62 1037 10 16.0934 0 0
1:35 am 01:35 Clear 12 -11.1 8 -13.2 85 85 S 9 15 30.63 1037 10 16.0934 0 0
1:55 am 01:55 Clear 12 -11 8 -13.1 85 85 S 10 17 30.62 1037 10 16.0934 0 0
2:15 am 02:15 Clear 12 -11 9 -13 85 85 S 10 17 30.61 1037 10 16.0934 0 0
2:35 am 02:35 Clear 12 -11 9 -13 85 85 S 10 17 30.61 1037 10 16.0934 0 0
2:55 am 02:55 Clear 12 -11.1 9 -13 86 86 S 9 15 30.62 1037 10 16.0934 0 0
3:15 am 03:15 Clear 12 -11 9 -13 85 85 S 12 19 30.6 1036 10 16.0934 0 0
3:35 am 03:35 Clear 12 -11 9 -13 85 85 S 12 19 30.58 1036 10 16.0934 0 0
3:55 am 03:55 Clear 12 -11.2 8 -13.1 86 86 S 7 11 30.57 1035 10 16.0934 0 0
4:15 am 04:15 Clear 12 -11.2 8 -13.1 86 86 S 10 17 30.56 1035 10 16.0934 0 0
4:35 am 04:35 Clear 12 -11.2 9 -13 87 87 S 10 17 30.56 1035 10 16.0934 0 0
4:55 am 04:55 Clear 12 -11.3 8 -13.1 87 87 S 8 13 30.56 1035 10 16.0934 0 0
5:15 am 05:15 Clear 12 -11.2 8 -13.1 86 86 S 9 15 30.55 1034 10 16.0934 0 0
5:35 am 05:35 Clear 12 -11 9 -13 85 85 S 10 17 30.53 1034 10 16.0934 0 0
5:55 am 05:55 Clear 12 -10.9 9 -12.7 87 87 S 10 17 30.52 1034 10 16.0934 0 0
6:15 am 06:15 Clear 13 -10.5 10 -12.5 85 85 S 10 17 30.51 1033 10 16.0934 0 0
6:35 am 06:35 Clear 13 -10.3 10 -12.2 86 86 S 14 22 30.49 1032 10 16.0934 0 0
6:55 am 06:55 Clear 14 -10.2 10 -12.1 86 86 S 13 20 30.48 1032 10 16.0934 0 0
7:15 am 07:15 Clear 14 -10.1 10 -12 86 86 S 14 22 30.47 1032 10 16.0934 0 0
7:35 am 07:35 Clear 14 -10 10 -12 85 85 S 15 24 30.47 1032 10 16.0934 0 0
7:55 am 07:55 Clear 14 -10 11 -11.8 87 87 S 12 19 30.47 1032 10 16.0934 0 0
8:15 am 08:15 Sunny 14 -10 11 -11.8 87 87 S 10 17 30.45 1031 10 16.0934 0 0
8:35 am 08:35 Sunny 14 -9.9 11 -11.6 88 88 S 15 24 30.44 1031 10 16.0934 0 0
8:55 am 08:55 Sunny 15 -9.6 11 -11.4 87 87 S 14 22 30.44 1031 10 16.0934 0 0
9:15 am 09:15 Sunny 15 -9.2 12 -11 87 87 S 10 17 30.43 1031 10 16.0934 0 0
9:35 am 09:35 Sunny 17 -8.2 13 -10.3 85 85 S 12 19 30.41 1030 10 16.0934 0 0
9:55 am 09:55 Sunny 19 -7.3 15 -9.6 84 84 S 13 20 30.39 1029 10 16.0934 0 0
10:15 am 10:15 Sunny 20 -6.7 16 -9.1 83 83 S 12 19 30.39 1029 10 16.0934 0 0
10:35 am 10:35 Sunny 21 -6.1 16 -8.7 82 82 S 15 24 30.38 1029 10 16.0934 0 0
10:55 am 10:55 Sunny 22 -5.8 17 -8.4 82 82 S 16 26 30.36 1028 10 16.0934 0 0
11:15 am 11:15 Sunny 22 -5.5 18 -7.9 83 83 S 14 22 30.33 1027 10 16.0934 0 0
11:35 am 11:35 Sunny 24 -4.7 19 -7.4 82 82 S 20 31 30.33 1027 10 16.0934 0 0
11:55 am 11:55 Partly Cloudy 25 -4 20 -6.7 82 82 S 16 26 30.3 1026 10 16.0934 0 0
12:15 pm 12:15 Partly Cloudy 25 -4 20 -6.7 82 82 S 17 28 30.28 1025 10 16.0934 0 0
12:35 pm 12:35 Mostly Cloudy 26 -3.5 21 -6.2 82 82 S 17 28 30.25 1024 10 16.0934 0 0
12:55 pm 12:55 Partly Cloudy 27 -2.9 22 -5.7 81 81 S 15 24 30.22 1023 10 16.0934 0 0
1:15 pm 13:15 Sunny 28 -2.5 22 -5.4 81 81 S 17 28 30.19 1022 10 16.0934 0 0
1:35 pm 13:35 Sunny 29 -1.8 23 -4.8 80 80 S 18 30 30.17 1022 10 16.0934 0 0
1:55 pm 13:55 Sunny 29 -1.4 24 -4.6 79 79 S 16 26 30.15 1021 10 16.0934 0 0
2:15 pm 14:15 Sunny 29 -1.4 24 -4.5 80 80 S 18 30 30.13 1020 10 16.0934 0 0
2:35 pm 14:35 Partly Cloudy 30 -1.2 24 -4.3 80 80 S 14 22 30.13 1020 10 16.0934 0 0
2:55 pm 14:55 Mostly Cloudy 30 -0.9 25 -4 80 80 S 14 22 30.12 1020 10 16.0934 0 0
3:15 pm 15:15 Partly Cloudy 31 -0.6 25 -3.8 79 79 S 12 19 30.1 1019 10 16.0934 0 0
3:35 pm 15:35 Partly Cloudy 31 -0.3 26 -3.6 79 79 S 15 24 30.09 1019 10 16.0934 0 0
3:55 pm 15:55 Partly Cloudy 32 0 26 -3.4 78 78 S 14 22 30.09 1019 10 16.0934 0 0
4:15 pm 16:15 Mostly Cloudy 32 0.1 26 -3.5 77 77 S 12 19 30.09 1019 10 16.0934 0 0
4:35 pm 16:35 Cloudy 32 0.1 26 -3.3 78 78 S 13 20 30.08 1018 10 16.0934 0 0
4:55 pm 16:55 Cloudy 32 0.1 26 -3.1 79 79 S 13 20 30.07 1018 10 16.0934 0 0
5:15 pm 17:15 Cloudy 33 0.3 26 -3.1 78 78 S 15 24 30.06 1018 10 16.0934 0 0
5:35 pm 17:35 Cloudy 33 0.5 26 -3.1 77 77 SSE 14 22 30.05 1018 10 16.0934 0 0
5:55 pm 17:55 Mostly Cloudy 33 0.6 26 -3.1 77 77 SSE 13 20 30.04 1017 10 16.0934 0 0
6:15 pm 18:15 Cloudy 33 0.5 27 -3 78 78 SSE 10 17 30.03 1017 10 16.0934 0 0
6:35 pm 18:35 Cloudy 34 0.9 27 -2.6 78 78 SSE 15 24 30.02 1017 10 16.0934 0 0
6:55 pm 18:55 Cloudy 34 1 28 -2.5 78 78 SSE 17 28 30.02 1016 10 16.0934 0 0
7:15 pm 19:15 Cloudy 34 0.9 28 -2.1 81 81 S 18 30 30.01 1016 10 16.0934 0 0
7:35 pm 19:35 Partly Cloudy 33 0.7 29 -1.5 85 85 S 18 30 30 1016 10 16.0934 0 0
7:55 pm 19:55 Mostly Cloudy 33 0.8 30 -1 88 88 S 17 28 30.01 1016 10 16.0934 0 0
8:15 pm 20:15 Cloudy 33 0.6 30 -1 89 89 S 16 26 30 1016 10 16.0934 0 0
8:35 pm 20:35 Cloudy 33 0.5 30 -1 90 90 SSE 15 24 30 1016 10 16.0934 0 0
8:55 pm 20:55 Cloudy 33 0.5 30 -1 90 90 SSE 15 24 30 1016 10 16.0934 0 0
9:15 pm 21:15 Cloudy 32 0.2 30 -1 92 92 S 16 26 30 1016 10 16.0934 0 0
9:35 pm 21:35 Cloudy 32 0.2 31 -0.8 93 93 S 16 26 30 1016 10 16.0934 0 0
9:55 pm 21:55 Cloudy 32 0.2 31 -0.6 94 94 S 15 24 29.99 1016 10 16.0934 0 0
10:15 pm 22:15 Cloudy with Light Drizzle 32 0.2 31 -0.5 95 95 S 16 26 29.99 1016 10 16.0934 0 0
10:35 pm 22:35 Cloudy with Light Drizzle 32 0.1 31 -0.5 96 96 S 15 24 29.99 1015 7 11.26538 0 0
10:55 pm 22:55 Cloudy with Light Drizzle 32 0.1 31 -0.5 96 96 S 16 26 29.98 1015 7 11.26538 0 0
11:15 pm 23:15 Cloudy with Light Drizzle 32 0.2 31 -0.3 96 96 S 15 24 29.96 1015 10 16.0934 0 0
11:35 pm 23:35 Cloudy with Light Drizzle 32 0.2 32 -0.2 97 97 S 12 19 29.96 1015 7 11.26538 0 0
11:55 pm 23:55 Cloudy with Rain 33 0.4 32 0 97 97 S 15 24 29.95 1014 7 11.26538 0 0

Powered by AerisWeather